Météo par heure à Aba

Ce jour, 14 Avril, Mercredi

Heure Température Précipitation Vent Pression Humidité
00:00 -2°C° 0.5 mm 6 m/s 754 mmHg 98%
01:00 -2°C° 0 mm 6 m/s 754 mmHg 98%
02:00 -2°C° 0.2 mm 6 m/s 754 mmHg 98%
03:00 -2°C° 0.2 mm 6 m/s 754 mmHg 97%
04:00 -2°C° 0.2 mm 6 m/s 754 mmHg 97%
05:00 -1°C° 0.2 mm 6 m/s 754 mmHg 97%
06:00 -1°C° 0.2 mm 6 m/s 755 mmHg 97%
07:00 -1°C° 0 mm 6 m/s 755 mmHg 97%
08:00 -1°C° 0.1 mm 6 m/s 755 mmHg 95%
09:00 +1°C° 0.1 mm 6 m/s 755 mmHg 93%
10:00 +2°C° 0.1 mm 7 m/s 755 mmHg 91%
11:00 +3°C° 0.1 mm 7 m/s 755 mmHg 87%
12:00 +3°C° 0.1 mm 7 m/s 755 mmHg 83%
13:00 +4°C° 0 mm 7 m/s 755 mmHg 76%
14:00 +5°C° 0.1 mm 7 m/s 755 mmHg 73%
15:00 +5°C° 0.1 mm 7 m/s 755 mmHg 71%
16:00 +5°C° 0.1 mm 7 m/s 755 mmHg 68%
17:00 +4°C° 0 mm 6 m/s 755 mmHg 71%
18:00 +3°C° 0 mm 6 m/s 756 mmHg 73%
19:00 +3°C° 0 mm 6 m/s 756 mmHg 76%
20:00 +2°C° 0 mm 6 m/s 756 mmHg 76%
21:00 +2°C° 0 mm 5 m/s 756 mmHg 76%
22:00 +1°C° 0 mm 5 m/s 756 mmHg 76%
23:00 +1°C° 0 mm 5 m/s 756 mmHg 77%

Demain, 15 Avril, Jeudi

Heure Température Précipitation Vent Pression Humidité
00:00 +1°C° 0 mm 5 m/s 756 mmHg 78%
01:00 +1°C° 0 mm 5 m/s 756 mmHg 79%
02:00 +1°C° 0 mm 5 m/s 756 mmHg 80%
03:00 0°C° 0 mm 5 m/s 756 mmHg 81%
04:00 0°C° 0 mm 5 m/s 756 mmHg 82%
05:00 +1°C° 0 mm 5 m/s 756 mmHg 81%
06:00 +1°C° 0 mm 6 m/s 756 mmHg 80%
07:00 +2°C° 0 mm 6 m/s 756 mmHg 79%
08:00 +2°C° 0 mm 6 m/s 757 mmHg 76%
09:00 +3°C° 0 mm 7 m/s 757 mmHg 72%
10:00 +4°C° 0 mm 7 m/s 757 mmHg 69%
11:00 +4°C° 0.1 mm 7 m/s 757 mmHg 64%
12:00 +5°C° 0.1 mm 7 m/s 756 mmHg 59%
13:00 +6°C° 0.1 mm 7 m/s 756 mmHg 54%
14:00 +6°C° 0 mm 7 m/s 756 mmHg 55%
15:00 +6°C° 0 mm 7 m/s 756 mmHg 55%
16:00 +7°C° 0 mm 6 m/s 756 mmHg 55%
17:00 +5°C° 0 mm 6 m/s 756 mmHg 60%
18:00 +5°C° 0 mm 5 m/s 756 mmHg 65%
19:00 +4°C° 0 mm 4 m/s 756 mmHg 69%
20:00 +3°C° 0 mm 4 m/s 756 mmHg 72%
21:00 +3°C° 0 mm 4 m/s 756 mmHg 75%
22:00 +1°C° 0 mm 5 m/s 756 mmHg 78%
23:00 +1°C° 0 mm 5 m/s 756 mmHg 78%

Après-demain, 16 Avril, Vendredi

Heure Température Précipitation Vent Pression Humidité
00:00 +1°C° 0 mm 4 m/s 756 mmHg 79%
01:00 +1°C° 0 mm 4 m/s 756 mmHg 79%
02:00 0°C° 0 mm 4 m/s 756 mmHg 80%
03:00 0°C° 0 mm 4 m/s 756 mmHg 81%
04:00 -1°C° 0 mm 4 m/s 756 mmHg 82%
05:00 0°C° 0 mm 5 m/s 756 mmHg 79%
06:00 +1°C° 0 mm 5 m/s 756 mmHg 75%
07:00 +1°C° 0 mm 5 m/s 756 mmHg 72%
08:00 +3°C° 0 mm 5 m/s 756 mmHg 66%
09:00 +5°C° 0 mm 5 m/s 756 mmHg 61%
10:00 +7°C° 0 mm 6 m/s 756 mmHg 55%
11:00 +7°C° 0 mm 5 m/s 756 mmHg 54%
12:00 +7°C° 0 mm 5 m/s 756 mmHg 53%
13:00 +8°C° 0 mm 5 m/s 756 mmHg 52%
14:00 +8°C° 0 mm 5 m/s 756 mmHg 53%
15:00 +8°C° 0 mm 4 m/s 756 mmHg 53%
16:00 +8°C° 0 mm 4 m/s 755 mmHg 54%
17:00 +7°C° 0 mm 3 m/s 755 mmHg 60%
18:00 +6°C° 0 mm 2 m/s 756 mmHg 65%
19:00 +5°C° 0 mm 2 m/s 756 mmHg 71%
20:00 +6°C° 0 mm 1 m/s 756 mmHg 73%
21:00 +5°C° 0 mm 1 m/s 756 mmHg 74%
22:00 +5°C° 0 mm 1 m/s 756 mmHg 76%
23:00 +5°C° 0 mm 1 m/s 755 mmHg 74%

17 Avril, Samedi

Heure Température Précipitation Vent Pression Humidité
00:00 +5°C° 0 mm 1 m/s 755 mmHg 73%
01:00 +6°C° 0 mm 1 m/s 755 mmHg 71%
02:00 +6°C° 0 mm 1 m/s 755 mmHg 72%
03:00 +6°C° 0 mm 1 m/s 754 mmHg 72%
04:00 +6°C° 0 mm 1 m/s 754 mmHg 72%
05:00 +6°C° 0 mm 1 m/s 754 mmHg 71%
06:00 +6°C° 0 mm 2 m/s 754 mmHg 70%
07:00 +6°C° 0 mm 2 m/s 754 mmHg 69%
08:00 +7°C° 0 mm 3 m/s 754 mmHg 64%
09:00 +8°C° 0 mm 3 m/s 754 mmHg 60%
10:00 +9°C° 0 mm 3 m/s 754 mmHg 55%
11:00 +10°C° 0 mm 3 m/s 753 mmHg 54%
12:00 +10°C° 0 mm 3 m/s 753 mmHg 53%
13:00 +11°C° 0 mm 3 m/s 753 mmHg 51%
14:00 +11°C° 0 mm 3 m/s 753 mmHg 52%
15:00 +11°C° 0 mm 3 m/s 752 mmHg 53%
16:00 +11°C° 0 mm 3 m/s 752 mmHg 53%
17:00 +10°C° 0 mm 3 m/s 752 mmHg 58%
18:00 +9°C° 0 mm 2 m/s 752 mmHg 63%
19:00 +9°C° 0 mm 1 m/s 752 mmHg 68%
20:00 +8°C° 0 mm 2 m/s 752 mmHg 69%
21:00 +8°C° 0 mm 2 m/s 752 mmHg 71%
22:00 +8°C° 0 mm 2 m/s 752 mmHg 72%
23:00 +7°C° 0 mm 2 m/s 752 mmHg 74%

18 Avril, Dimanche

Heure Température Précipitation Vent Pression Humidité
00:00 +7°C° 0 mm 2 m/s 752 mmHg 76%
01:00 +7°C° 0 mm 2 m/s 752 mmHg 78%
02:00 +7°C° 0.1 mm 2 m/s 752 mmHg 79%
03:00 +7°C° 0.1 mm 2 m/s 752 mmHg 81%
04:00 +5°C° 0.1 mm 3 m/s 752 mmHg 82%
05:00 +5°C° 0.2 mm 3 m/s 752 mmHg 83%
06:00 +7°C° 0.2 mm 3 m/s 752 mmHg 84%
07:00 +7°C° 0.2 mm 3 m/s 752 mmHg 84%
08:00 +7°C° 0.3 mm 3 m/s 752 mmHg 86%
09:00 +7°C° 0.3 mm 3 m/s 753 mmHg 88%
10:00 +7°C° 0.3 mm 3 m/s 753 mmHg 89%
11:00 +7°C° 0.2 mm 3 m/s 753 mmHg 89%
12:00 +7°C° 0.2 mm 2 m/s 753 mmHg 89%
13:00 +7°C° 0.2 mm 2 m/s 753 mmHg 89%
14:00 +7°C° 0.2 mm 2 m/s 753 mmHg 90%
15:00 +8°C° 0.2 mm 1 m/s 753 mmHg 91%
16:00 +8°C° 0.2 mm 1 m/s 753 mmHg 91%
17:00 +8°C° 0.1 mm 1 m/s 753 mmHg 93%
18:00 +8°C° 0.1 mm 1 m/s 753 mmHg 94%
19:00 +8°C° 0.1 mm 1 m/s 754 mmHg 95%
20:00 +8°C° 0.1 mm 1 m/s 754 mmHg 95%
21:00 +7°C° 0.1 mm 1 m/s 754 mmHg 96%
22:00 +7°C° 0.1 mm 1 m/s 754 mmHg 96%
23:00 +7°C° 0.1 mm 1 m/s 754 mmHg 96%

19 Avril, Lundi

Heure Température Précipitation Vent Pression Humidité
00:00 +7°C° 0.1 mm 1 m/s 754 mmHg 96%
01:00 +6°C° 0.1 mm 0 m/s 754 mmHg 96%
02:00 +6°C° 0.1 mm 0 m/s 753 mmHg 96%
03:00 +6°C° 0.1 mm 0 m/s 753 mmHg 96%
04:00 +6°C° 0.1 mm 0 m/s 753 mmHg 96%
05:00 +6°C° 0 mm 0 m/s 753 mmHg 95%
06:00 +7°C° 0 mm 0 m/s 753 mmHg 94%
07:00 +7°C° 0 mm 0 m/s 753 mmHg 93%
08:00 +8°C° 0.1 mm 0 m/s 753 mmHg 88%
09:00 +8°C° 0.1 mm 0 m/s 753 mmHg 84%
10:00 +9°C° 0.1 mm 0 m/s 753 mmHg 79%
11:00 +11°C° 0.1 mm 1 m/s 752 mmHg 74%
12:00 +12°C° 0.1 mm 1 m/s 752 mmHg 69%
13:00 +13°C° 0.1 mm 1 m/s 751 mmHg 63%
14:00 +13°C° 0.1 mm 1 m/s 751 mmHg 64%
15:00 +13°C° 0.1 mm 2 m/s 750 mmHg 65%
16:00 +13°C° 0.1 mm 2 m/s 750 mmHg 65%
17:00 +12°C° 0 mm 2 m/s 750 mmHg 71%
18:00 +10°C° 0 mm 2 m/s 750 mmHg 77%
19:00 +8°C° 0 mm 2 m/s 750 mmHg 83%
20:00 +8°C° 0.1 mm 2 m/s 749 mmHg 85%
21:00 +8°C° 0.1 mm 2 m/s 749 mmHg 88%
22:00 +8°C° 0.1 mm 2 m/s 749 mmHg 90%
23:00 +7°C° 0 mm 3 m/s 749 mmHg 91%
Voir plus

Nous avons besoin de votre consentement

Meteoprog et ses fournisseurs de services peuvent stocker et accéder à des données personnelles telles que des cookies, des identifiants d'appareils ou d'autres technologies similaires sur votre appareil et traiter ces données pour personnaliser le contenu et les publicités, ainsi que pour fournir des fonctionnalités de médias sociaux et analyser le trafic.

  • Stocker et/ou accéder à des informations sur votre appareil

    Des cookies, des identifiants d'appareils ou d'autres informations peuvent être stockés ou accessibles sur votre appareil aux fins indiquées ci-dessus.

  • Annonces et contenus personnalisés, mesure des annonces et des contenus, connaissance de l'audience et développement de produits

    Les annonces et le contenu peuvent être personnalisés en fonction d'un profil. D'autres données peuvent être ajoutées pour mieux personnaliser les annonces et le contenu. Les performances des publicités et du contenu peuvent être mesurées. Il est possible d'obtenir des informations sur le public qui a vu les publicités et le contenu. Ces données peuvent être utilisées pour développer ou améliorer l'expérience de l'utilisateur, les systèmes et les logiciels.

En cliquant sur "J'accepte", vous autorisez l'utilisation de cookies, des identifiants d'appareils, des balises web ou d'autres technologies similaires. Vos paramètres peuvent être modifiés dans le navigateur de votre appareil.

Dans certains cas, des intérêts légitimes peuvent être invoqués plutôt qu'un consentement. Vous pouvez en savoir plus à ce sujet dans notre Politique de confidentialité et de cookies.